Regional Weather Roundup
Issued by NWS

Home | Current Version | Previous Version | Text Only | Print | Product List | Glossary Off
Versions: 1 2 3 4 5 6 7 8 9 10 11 12 13 14 15 16 17 18 19 20 21 22 23 24 25 26 27

000
ASUS45 KBOU 251307
RWRCO

WEATHER ROUNDUP FOR COLORADO
NATIONAL WEATHER SERVICE DENVER/BOULDER CO
700 AM MDT MON JUL 25 2016

NOTE: "FAIR" INDICATES FEW OR NO CLOUDS BELOW 12000 FEET WITH NO
SIGNIFICANT WEATHER AND/OR OBSTRUCTIONS TO VISIBILITY.

COZ001>005-013-030-031-251400-
...NORTHWEST COLORADO...

CITY           SKY/WX    TMP DP  RH WIND       PRES   REMARKS
CRAIG          FAIR      49  42  77 W7        30.29R
HAYDEN         FAIR      54  37  54 E10       30.30R
MEEKER         FAIR      52  40  63 CALM      30.29R
MOUNT WERNER   NOT AVBL
STEAMBOAT SPGS FAIR      49  40  72 CALM      30.34R
WALDEN         FAIR      39  32  75 SE8       30.44S
$$

COZ006>008-011-251400-
...WEST CENTRAL VALLEYS...

CITY           SKY/WX    TMP DP  RH WIND       PRES   REMARKS
GRAND JUNCTION FAIR      69  41  36 E15       30.16R
MONTROSE       FAIR      68  40  35 E7        30.26R
EAGLE          FAIR      48  41  76 CALM      30.40R
RIFLE          FAIR      59  42  53 CALM      30.25R
DELTA          FAIR      67  42  39 NE8       30.23R
NUCLA          NOT AVBL
$$

COZ017>023-064>068-251400-
...SOUTHWEST COLORADO...

CITY           SKY/WX    TMP DP  RH WIND       PRES   REMARKS
DURANGO        FAIR      60  46  59 CALM      30.34R
CORTEZ         FAIR      62  48  60 MISG      30.27R
PAGOSA SPRINGS FAIR      53  43  67 CALM      30.43R
TELLURIDE      FAIR      56  40  54 SE5       30.54S
WOLF CREEK PAS FAIR      52  36  54 SW7       30.76S
$$

COZ009-010-012-014-032>034-037-058>063-251400-
...CENTRAL COLORADO...

CITY           SKY/WX    TMP DP  RH WIND       PRES   REMARKS
ASPEN          FAIR      49  39  68 CALM      30.41R
BUENA VISTA    FAIR      52  43  70 CALM      30.47S
COPPER MTN     FAIR      55  32  41 S13       30.74R
BERTHOUD PASS  FAIR      46  32  57 W12       30.76S
COTTONWOOD PAS FAIR      59  36  41 NW3       30.59R
GUNNISON       FAIR      48  37  66 CALM      30.50R
KREMMLING      FAIR      43  41  93 CALM      30.44S
LEADVILLE      FAIR      42  38  85 CALM      30.59R
MONARCH PASS   FAIR      48  37  66 SW12      30.85R
SALIDA         FAIR      57  47  69 NW6       30.52R
SUNLIGHT       FAIR      57  34  41 CALM      30.66R
WILKERSON PASS FAIR      50  37  62 W6        30.71S
$$

COZ069>075-251400-
...SAN LUIS VALLEY/SANGRE DE CRISTO MOUNTAINS...

CITY           SKY/WX    TMP DP  RH WIND       PRES   REMARKS
ALAMOSA        FAIR      53  46  77 S3        30.42R
LA VETA PASS   FAIR      54  41  62 S7        30.59S
SAGUACHE       NOT AVBL
$$

COZ035-036-038>040-251400-
...NORTHERN COLORADO FRONT RANGE...

CITY           SKY/WX    TMP DP  RH WIND       PRES   REMARKS
DENVER INTL AP FAIR      62  53  72 SW6       30.20F
DMNS CITY PARK   N/A     63  55  74 SW3       30.20S
AURORA         MOSUNNY   62  54  75 CALM      30.22F
FRONT RANGE AP MOSUNNY   59  55  88 E8        30.22
ERIE MUNI ARPT FAIR      57  54  90 CALM      30.19F
BOULDER MUN AP FAIR      61  54  77 CALM      30.20F
CENTENNIAL     FAIR      62  52  69 SE6       30.23F
BROOMFIELD     MOSUNNY   61  55  82 W5        30.22F
LONGMONT       FAIR      60  55  85 CALM      30.21F
$$

COZ041-046-047-076>085-087-088-251400-
...PIKES PEAK/PALMER DIVIDE AND SOUTHERN FOOTHILLS...

CITY           SKY/WX    TMP DP  RH WIND       PRES   REMARKS
COLO. SPRINGS  FAIR      58  52  80 NE3       30.32R
A. F. ACADEMY  FAIR      54  52  94 N2        30.32S
SCHRIEVER AFB  NOT AVBL
ELLICOTT       FAIR     N/A N/A N/A CALM      30.30R
FALCON         FAIR      58  54  87 W5        30.34F
FORT CARSON    FAIR      58  55  91 NW2       30.29R
LIMON          FAIR      57  55  93 SE3       30.27R
MONUMENT HILL  FAIR      55  50  82 SW8       30.35S
TRINIDAD       NOT AVBL
$$

COZ042>045-048>051-090-091-251400-
...NORTHEAST COLORADO...

CITY           SKY/WX    TMP DP  RH WIND       PRES   REMARKS
GREELEY ARPT   FAIR      57  55  94 NE3       30.20S
AKRON          FAIR      59  55  87 SE10      30.22F
BURLINGTON     FAIR      63  57  81 NE3       30.22S
WRAY           FAIR      61  61 100 CALM      30.19F
STERLING       FAIR      61  59  94 SE5       30.19F
HOLYOKE          N/A     61  57  88 CALM      30.20F
FORT MORGAN    FAIR      60  57  89 E10       30.20F
$$

COZ086-089-092>099-251400-
...SOUTHEAST COLORADO...

CITY           SKY/WX    TMP DP  RH WIND       PRES   REMARKS
PUEBLO         FAIR      65  57  75 E3        30.24R
LA JUNTA       FAIR      65  62  90 W5        30.22S
LAMAR          FAIR      63  60  90 CALM      30.18S
SPRINGFIELD      N/A     63  58  83 W5        30.21R
$$




USA.gov is the U.S. government's official web portal to all federal, state and local government web resources and services.